COSMOS 1367 DEB, 48266

Orbit data source: Space-Track

COSMOS 1367 DEB, 48266 is space debris in HEO originally from a launch on Thu, 20 May 1982 UTC launched from the Plesetsk Missile And Space Complex (PKMTR). Debris objects in space refer to the collection of defunct objects orbiting the Earth. Examples of debris include non-operational satellites, rocket bodies, and fragments generated from explosions, collisions, or faulty payload assembly.

Loading next visibility...
Identifier
48266, 1982-045E
Orbit
HEO
Country
Flag of CISCIS
Related business
Manufacturer
Lavochkin
Mission
Spacecraft
Bus & Motor
Unknown
Mass
Unknown
Launch date (UTC)
1982-05-20 (44 years ago)
Launch vehicle
Unknown
Launch site
Plesetsk Missile And Space Complex (PKMTR)
Object type
Payload
Rocket body
Debris
Shape & HBR
Unknown shape, 0.4 m
Radar Cross Section
Medium (>0.1 m² and <1 m²)

Expand to show TLE details & history
Last TLE update: 3 days ago

TLE from 3 days ago
0 COSMOS 1367 DEB
1 48266U 82045E   26170.04324790 -.00000101  00000-0  52539-3 0  9990
2 48266  64.3504  50.8542 7196619  12.9848 358.6936  2.06313670 47666
Epoch: 2026-06-19T01:02Z
TLE epoch observation values (Epoch: 2026-06-19T01:02:16.618Z)
Latitude
0.00044°
Longitude
128.02864°
Altitude
1,002.085 km
Speed
9.63 km/s
True Right ascension
03h 23m 30s
True Declination
0° 00' 02"
Sunlit
Object was in daylight at epoch
Visualization orbit readout
Latitude
Unknown
Longitude
Unknown
Altitude
Unknown
Speed
Unknown
Apparent Right ascension
Unknown
Apparent Declination
Unknown
Sunlit
N/A
Visualization observer readout
Local Sidereal Time
21:29:12
Azimuth
Unknown
Elevation
Unknown
Doppler factor
Unknown
Orbital elements
Apogee altitude
38,442.163 km
Perigee altitude
928.437 km
Semi-major axis
26,063.437 km
Eccentricity
0.71966
Inclination
64.3504°
RAAN
50.8542°
Arg. of periapsis
12.9848°
True anomaly
348.52278°
Mean anomaly
358.6936°
Eccentric anomaly
355.35299°
Mean motion
0.51582 °/min
Orbital period
697.92 mins
BSTAR
0.00052539
Loading maneuver chart data...
Computing Atmospheric mass density...
Loading historical data...
Loading historical data...
Loading historical data...
Loading historical data...
Loading historical data...
Loading historical data...
Loading historical data...

Documentation

Showing up to 5 results
|